[[{"header":{"parameterUnit":"m.s-1","parameterCategory":1,"la1":30.2991,"la2":30.254,"lo1":-89.0895,"lo2":-89.0444,"dy":0.0017,"dx":0.0017,"nx":28,"ny":28,"refTime":"2024-08-06T21:00:00:Z","depth":0,"parameterNumber":2,"parameterNumberName":"U-component_of_WINDS"},"data":[0,0,0,0,0,0,0,0,0,0,0,0,0,0,0,0,0,0,0,0,0,0,0,0,0,0,0,0,0,0,0,0,0,0,0,0,0,0,0,0,0,0,0,0,0,0,0,0,0,0,0,0,0,0,0,0,0,0,2.2206,2.2207,0,2.2239,2.224,2.224,2.22,2.2199,2.2198,2.2196,2.2232,2.2234,2.2236,0,0,0,0,0,0,0,0,0,0,0,0,0,2.2111,2.2113,2.2206,2.2207,2.2207,2.2239,2.224,2.224,2.2201,2.2199,2.2197,2.2195,2.2231,2.2234,2.2236,0,0,0,0,0,0,0,0,0,0,0,0,0,2.2149,2.2113,2.2206,2.2191,2.219,2.2239,2.224,2.224,2.2201,2.2199,2.2197,2.2195,2.223,2.2233,2.2237,2.2303,0,0,2.2248,2.2249,0,0,0,0,0,0,0,0,2.2147,2.2152,2.2193,2.2192,2.2191,2.2213,2.2219,2.2261,2.2202,2.2197,2.2196,2.2194,2.2228,2.2231,2.2242,2.2304,2.2306,2.2248,2.225,2.2251,2.2252,0,0,0,0,0,0,0,2.2144,2.2151,2.2219,2.2194,2.2193,2.2183,2.2186,2.2227,2.2224,2.2197,2.2194,2.2199,2.2227,2.2239,2.2243,2.2306,2.2248,2.2251,2.2253,2.2254,2.2425,2.2427,0,0,0,0,0,0,2.2143,2.2149,2.2218,2.222,2.2163,2.2187,2.219,2.2209,2.2224,2.2224,2.2201,2.2197,2.2234,2.2239,2.2244,2.2322,2.2251,2.2255,2.2257,2.2423,2.2426,2.2428,0,0,0,0,0,0,2.2141,2.2149,2.2217,2.2184,2.2192,2.2191,2.2212,2.221,2.2223,2.2226,2.2226,2.2214,2.2233,2.2239,2.2288,2.2323,2.2256,2.2259,2.242,2.2424,2.2427,2.248,0,0,0,0,0,0,2.2138,2.2149,2.2174,2.2185,2.2194,2.2261,2.2214,2.2213,2.2229,2.2224,2.2238,2.2239,2.2231,2.2283,2.2292,2.2327,2.2262,2.2417,2.2421,2.2426,2.2475,2.2485,2.2493,0,0,0,0,0,2.2135,2.2187,2.2175,2.2184,2.2224,2.2263,2.2268,2.2258,2.2231,2.2257,2.2259,2.2238,2.2318,2.2289,2.2298,2.2334,2.2414,2.242,2.2425,2.2471,2.2483,2.2493,0,0,0,0,0,0,2.2181,2.2189,2.2175,2.2232,2.2247,2.2256,2.2287,2.2271,2.2294,2.2288,2.2276,2.2279,2.2332,2.2338,2.2306,2.2399,2.2362,2.237,2.2393,2.2405,2.2414,2.2412,2.2265,0,0,0,0,0,2.2198,2.2228,2.2233,2.2283,2.2291,2.2288,2.2304,2.2295,2.231,2.2317,2.2322,2.2338,2.2367,2.2386,2.2413,2.2476,2.2479,2.2505,2.2514,2.2522,2.2529,2.2563,2.2576,2.2446,2.2446,2.2446,0,0,2.2233,2.224,2.226,2.2292,2.2303,2.2335,2.2293,2.2329,2.2353,2.2322,2.2369,2.2374,2.2391,2.2448,2.2473,2.2455,2.2565,2.2529,2.2535,2.2538,2.257,2.2583,2.2593,2.245,2.2449,2.2449,0,0,2.2313,2.2321,2.2364,2.2376,2.2392,2.2389,2.24,2.2411,2.2413,2.246,2.2438,2.2466,2.2516,2.2529,2.2542,2.2628,2.261,2.2637,2.2685,2.2719,2.2729,2.2738,2.2769,2.278,2.2644,2.2644,2.2644,0,2.2354,2.2401,2.2389,2.2426,2.2441,2.2414,2.2458,2.247,2.2494,2.2505,2.2484,2.2546,2.2555,2.2615,2.2636,2.2647,2.2659,2.2635,2.2728,2.2737,2.2745,2.2775,2.2787,2.2647,2.2647,2.2646,2.2646,0,2.2452,2.2485,2.2517,2.2541,2.256,2.26,2.2595,2.2615,2.2605,2.2605,2.2654,2.2664,2.2692,2.2706,2.2696,2.2765,2.2753,2.273,2.2692,2.2761,2.2789,2.28,2.2652,2.265,2.2649,2.2649,0,0,2.2562,2.2578,2.259,2.2601,2.2617,2.2643,2.2682,2.2709,2.2728,2.2745,2.2779,2.2821,2.2801,2.2816,2.2807,2.2837,2.2905,2.2811,2.2811,2.2829,2.2982,2.2999,2.3013,2.2893,2.2895,2.2897,2.2981,0,2.2643,2.271,2.27,2.2766,2.2797,2.2772,2.2806,2.282,2.2822,2.2848,2.285,2.288,2.2851,2.286,2.2888,2.2891,2.2936,2.2885,2.2925,2.2926,2.2922,2.3027,2.3045,2.3124,2.2992,2.2993,2.2995,0,2.2746,2.2767,2.2836,2.2847,2.286,2.2891,2.2915,2.2941,2.2957,2.2955,2.2973,2.2959,2.2999,2.296,2.3016,2.2982,2.2998,2.3002,2.3005,2.3008,2.2965,2.3034,2.3149,2.3161,2.3012,2.301,2.3009,0,2.282,2.2866,2.2913,2.2923,2.2937,2.296,2.2967,2.298,2.2998,2.3019,2.3031,2.3057,2.3072,2.3093,2.3087,2.3059,2.3144,2.3105,2.3145,2.3146,2.3165,2.3164,2.3284,2.3174,2.3174,2.3174,2.3174,0,2.2912,2.2955,2.2946,2.2975,2.3023,2.3012,2.306,2.3064,2.3076,2.3106,2.3086,2.3115,2.3105,2.3134,2.3129,2.3177,2.3183,2.3184,2.3183,2.3186,2.3186,2.3197,2.3192,2.3177,2.3176,2.3176,2.3175,0,2.3003,2.2999,2.3049,2.3058,2.3062,2.3097,2.3105,2.3133,2.3132,2.3171,2.3179,2.3179,2.3212,2.3208,2.3244,2.3241,2.33,2.3292,2.3295,2.3293,2.3334,2.3331,2.3466,2.3484,2.3362,2.3363,2.3364,0,2.3062,2.3094,2.3107,2.3126,2.3135,2.3165,2.3182,2.3172,2.3191,2.3212,2.3237,2.3268,2.3292,2.3345,2.3349,2.3377,2.3369,2.3415,2.3373,2.3376,2.3371,2.3369,2.3373,2.3423,2.3424,2.3426,2.3426,0,2.3167,2.3164,2.3189,2.3214,2.3236,2.3255,2.3273,2.3289,2.3281,2.3304,2.3336,2.3355,2.3392,2.3423,2.3449,2.3458,2.3441,2.3439,2.345,2.3455,2.3455,2.3456,2.3318,2.3436,2.3435,2.3435,2.3434,2.3434,2.3245,2.3273,2.3286,2.3316,2.3328,2.3345,2.3371,2.3374,2.3401,2.343,2.3423,2.346,2.3475,2.3509,2.352,2.355,2.3533,2.3549,2.3553,2.3557,2.3562,2.345,2.3554,2.3554,2.3554,2.3553,2.3553,0,2.335,2.3357,2.3384,2.3409,2.3432,2.3414,2.3433,2.3454,2.3486,2.3502,2.3526,2.3564,2.3594,2.36,2.3629,2.3651,2.3645,2.3659,2.3658,2.366,2.3575,2.3563,2.3664,2.3664,2.3664,2.3664,2.3664,2.3664,2.3407,2.3453,2.3452,2.3504,2.3511,2.3547,2.356,2.3575,2.3588,2.3631,2.3655,2.3659,2.3671,2.3701,2.3728,2.3729,2.3741,2.3758,2.3757,2.3677,2.3666,2.3655,2.3644,2.3761,2.3761,2.3839,2.384,2.3841]},{"header":{"parameterUnit":"m.s-1","parameterCategory":1,"la1":30.2991,"la2":30.254,"lo1":-89.0895,"lo2":-89.0444,"dy":0.0017,"dx":0.0017,"nx":28,"ny":28,"refTime":"2024-08-06T21:00:00:Z","depth":0,"parameterNumber":3,"parameterNumberName":"V-component_of_WINDS"},"data":[0,0,0,0,0,0,0,0,0,0,0,0,0,0,0,0,0,0,0,0,0,0,0,0,0,0,0,0,0,0,0,0,0,0,0,0,0,0,0,0,0,0,0,0,0,0,0,0,0,0,0,0,0,0,0,0,0,0,-2.214,-2.2142,0,-2.2254,-2.2255,-2.2257,-2.2263,-2.2262,-2.2261,-2.2259,-2.2377,-2.2382,-2.2386,0,0,0,0,0,0,0,0,0,0,0,0,0,-2.1931,-2.1935,-2.214,-2.2142,-2.2143,-2.2254,-2.2256,-2.2257,-2.2264,-2.2262,-2.226,-2.2259,-2.2376,-2.2381,-2.2386,0,0,0,0,0,0,0,0,0,0,0,0,0,-2.2031,-2.1936,-2.214,-2.216,-2.2163,-2.2254,-2.2256,-2.2257,-2.2264,-2.2262,-2.226,-2.2258,-2.2374,-2.2381,-2.2387,-2.2467,0,0,-2.2407,-2.241,0,0,0,0,0,0,0,0,-2.2026,-2.2039,-2.2155,-2.2159,-2.2162,-2.2242,-2.2225,-2.2328,-2.2264,-2.2225,-2.2259,-2.2257,-2.2334,-2.2344,-2.237,-2.2472,-2.2477,-2.2408,-2.2412,-2.2414,-2.2416,0,0,0,0,0,0,0,-2.2019,-2.2034,-2.2185,-2.2157,-2.2161,-2.2164,-2.2176,-2.2245,-2.229,-2.2229,-2.2229,-2.2243,-2.2336,-2.2363,-2.2372,-2.2479,-2.2407,-2.2413,-2.2417,-2.242,-2.2654,-2.2656,0,0,0,0,0,0,-2.2008,-2.2028,-2.2182,-2.2189,-2.2088,-2.2169,-2.2183,-2.2219,-2.2289,-2.2298,-2.2244,-2.2243,-2.2353,-2.2365,-2.2377,-2.2475,-2.2414,-2.242,-2.2424,-2.2652,-2.2655,-2.2657,0,0,0,0,0,0,-2.2003,-2.2021,-2.2177,-2.2109,-2.2129,-2.2175,-2.2215,-2.2222,-2.225,-2.2301,-2.2309,-2.2264,-2.2352,-2.2367,-2.2444,-2.2479,-2.2423,-2.2429,-2.2649,-2.2653,-2.2656,-2.2672,0,0,0,0,0,0,-2.1997,-2.202,-2.205,-2.2109,-2.2132,-2.2242,-2.2217,-2.2226,-2.2261,-2.226,-2.2321,-2.233,-2.2352,-2.2435,-2.2451,-2.2487,-2.2434,-2.2646,-2.2651,-2.2655,-2.2669,-2.2676,-2.2682,0,0,0,0,0,-2.199,-2.205,-2.2051,-2.207,-2.2171,-2.2244,-2.2258,-2.2281,-2.2263,-2.2294,-2.2328,-2.2328,-2.2473,-2.2442,-2.2461,-2.25,-2.2644,-2.265,-2.2655,-2.2666,-2.2675,-2.2682,0,0,0,0,0,0,-2.1993,-2.2058,-2.206,-2.2141,-2.2187,-2.2245,-2.2285,-2.2289,-2.2342,-2.2339,-2.2366,-2.238,-2.2457,-2.2486,-2.2451,-2.2581,-2.2557,-2.2566,-2.2559,-2.2568,-2.2574,-2.2565,-2.244,0,0,0,0,0,-2.2003,-2.2057,-2.2111,-2.2177,-2.22,-2.2239,-2.2272,-2.2286,-2.2335,-2.2355,-2.2393,-2.2441,-2.2498,-2.2534,-2.2589,-2.2673,-2.2688,-2.2709,-2.2716,-2.2721,-2.2729,-2.2776,-2.2787,-2.2674,-2.2674,-2.2674,0,0,-2.2025,-2.2067,-2.2099,-2.2179,-2.2216,-2.2272,-2.2255,-2.2314,-2.2356,-2.2364,-2.2439,-2.2469,-2.2525,-2.2606,-2.2644,-2.2633,-2.2763,-2.2728,-2.2731,-2.2736,-2.2783,-2.2793,-2.2803,-2.2678,-2.2677,-2.2677,0,0,-2.2092,-2.2129,-2.2189,-2.2227,-2.2284,-2.2309,-2.2324,-2.2382,-2.2402,-2.2478,-2.2485,-2.2536,-2.2632,-2.2672,-2.2705,-2.2789,-2.2792,-2.2806,-2.284,-2.2887,-2.2895,-2.2904,-2.2934,-2.2945,-2.2814,-2.2814,-2.2814,0,-2.2112,-2.2195,-2.2219,-2.2279,-2.2315,-2.2324,-2.2385,-2.2421,-2.2493,-2.2518,-2.2505,-2.2627,-2.2665,-2.2756,-2.2777,-2.2803,-2.2821,-2.2799,-2.2892,-2.29,-2.2908,-2.2938,-2.2949,-2.2815,-2.2815,-2.2815,-2.2815,0,-2.2217,-2.2275,-2.2317,-2.2386,-2.2426,-2.2486,-2.252,-2.2559,-2.257,-2.2597,-2.2675,-2.2721,-2.2786,-2.2809,-2.2821,-2.2902,-2.2894,-2.2886,-2.2862,-2.292,-2.2948,-2.296,-2.2817,-2.2817,-2.2816,-2.2816,0,0,-2.2289,-2.2371,-2.2386,-2.2418,-2.2482,-2.2528,-2.259,-2.2653,-2.2685,-2.2735,-2.2788,-2.287,-2.2864,-2.2901,-2.2917,-2.2958,-2.3023,-2.2946,-2.2947,-2.2959,-2.3117,-2.3123,-2.3135,-2.3025,-2.3028,-2.303,-2.3113,0,-2.2364,-2.2472,-2.2496,-2.259,-2.2645,-2.2655,-2.2709,-2.2755,-2.2782,-2.2833,-2.2864,-2.2922,-2.2909,-2.2932,-2.2972,-2.3006,-2.3055,-2.3001,-2.3075,-2.3078,-2.3061,-2.315,-2.3156,-2.3232,-2.3124,-2.3126,-2.3127,0,-2.2466,-2.2518,-2.2617,-2.2675,-2.2698,-2.2746,-2.2807,-2.2855,-2.2908,-2.2925,-2.2967,-2.298,-2.3045,-2.3018,-2.3109,-2.3072,-2.3104,-2.3126,-2.3129,-2.3137,-2.3106,-2.316,-2.3257,-2.3268,-2.3145,-2.3143,-2.3142,0,-2.2508,-2.2604,-2.2675,-2.2702,-2.2772,-2.2805,-2.2836,-2.2886,-2.2923,-2.2977,-2.3001,-2.3061,-2.3094,-2.3141,-2.317,-2.3148,-2.326,-2.3235,-2.3277,-2.3276,-2.3299,-2.3297,-2.3402,-2.332,-2.332,-2.332,-2.3319,0,-2.259,-2.265,-2.2696,-2.274,-2.2808,-2.2836,-2.2903,-2.2934,-2.2979,-2.303,-2.3044,-2.3092,-2.3127,-2.318,-2.3203,-2.3276,-2.3291,-2.3307,-2.3313,-2.3306,-2.3304,-2.3327,-2.3323,-2.3323,-2.3322,-2.3321,-2.3321,0,-2.2649,-2.2682,-2.2761,-2.282,-2.2837,-2.2884,-2.2936,-2.298,-2.3008,-2.3073,-2.309,-2.3134,-2.3198,-2.3231,-2.3311,-2.3327,-2.3408,-2.341,-2.339,-2.3392,-2.3432,-2.3428,-2.3556,-2.3574,-2.3479,-2.348,-2.3481,0,-2.2698,-2.2745,-2.2809,-2.2844,-2.2875,-2.2932,-2.2969,-2.2999,-2.3038,-2.3103,-2.3139,-2.3203,-2.3256,-2.3357,-2.3397,-2.3459,-2.3463,-2.3503,-2.3472,-2.3464,-2.3464,-2.3461,-2.3466,-2.3509,-2.351,-2.351,-2.3511,0,-2.2782,-2.2797,-2.285,-2.291,-2.2955,-2.3004,-2.3052,-2.308,-2.3118,-2.3161,-2.3226,-2.3267,-2.3349,-2.3413,-2.3477,-2.351,-2.3517,-2.3521,-2.3534,-2.3527,-2.3513,-2.3522,-2.3405,-2.3517,-2.3517,-2.3516,-2.3516,-2.3516,-2.2839,-2.2881,-2.2933,-2.2993,-2.3032,-2.3077,-2.3122,-2.3156,-2.321,-2.3279,-2.3293,-2.3362,-2.3415,-2.3503,-2.3537,-2.3593,-2.3584,-2.3603,-2.3608,-2.3612,-2.3614,-2.3505,-2.3604,-2.3604,-2.3604,-2.3604,-2.3604,0,-2.2924,-2.2958,-2.3013,-2.308,-2.3127,-2.313,-2.3184,-2.3223,-2.3284,-2.3332,-2.3384,-2.346,-2.3522,-2.3568,-2.3632,-2.3667,-2.3672,-2.3683,-2.3681,-2.3688,-2.3617,-2.36,-2.3678,-2.3678,-2.3678,-2.3678,-2.3678,-2.3678,-2.2974,-2.3046,-2.3067,-2.3159,-2.3193,-2.326,-2.3291,-2.3333,-2.3372,-2.3456,-2.3508,-2.3537,-2.3585,-2.3653,-2.371,-2.3722,-2.3746,-2.3756,-2.3768,-2.3701,-2.3693,-2.3686,-2.3669,-2.3761,-2.3761,-2.3835,-2.3836,-2.3836]}]]